{"data":{"norad_id":64008,"epoch":"2026-05-24T19:14:30.285024Z","epoch_age_seconds":98930,"freshness":"FRESH","line1":"1 64008U 25101Q   26144.80173941  .00021085  00000+0  77341-3 0  9997","line2":"2 64008  43.0006 288.2919 0001567 274.0411  86.0262 15.27584911 58695","mean_motion":15.27584911,"eccentricity":0.0001567,"inclination_deg":43.0006,"raan_deg":288.2919,"arg_perigee_deg":274.0411,"mean_anomaly_deg":86.0262,"bstar":0.00077341,"rev_number":5869,"period_min":94.266445657501,"perigee_km":481.95924522139,"apogee_km":484.10953633526,"semimajor_km":6861.1713907783,"source":"CELESTRAK","updated_at":"2026-05-25T13:38:20.220596Z"}}